QPF
0.00 0.00 0.00 0.00 0.00 0.00 0.00 0.00 0.00 0.00 0.00 0.00 0.00 0.00 0.00 0.00 0.00 0.00 0.00 0.00 0.00 0.00 0.00 0.00 0.00 0.00 0.00 0.00 0.00 0.00 0.00 0.00 0.00 0.00 0.00 0.00 0.00 0.00 0.00 0.00 0.00 0.00 0.01
0.00 0.00 0.00 0.00 0.00 0.00 0.00 0.00 0.00 0.00 0.00 0.00 0.00 0.00 0.00 0.00 0.00 0.00 0.00 0.00 0.00 0.00 0.00 0.00 0.00 0.00 0.00 0.00 0.00 0.00 0.00 0.00 0.00 0.00 0.00 0.00 0.00 0.00 0.00 0.00 0.00 0.00 0.00
0.00 0.00 0.00 0.00 0.00 0.00 0.00 0.00 0.00 0.00 0.00 0.00 0.00 0.00 0.00 0.00 0.00 0.00 0.00 0.00 0.00 0.00 0.00 0.00 0.00 0.00 0.00 0.00 0.00 0.00 0.00 0.00 0.00 0.00 0.00 0.00 0.00 0.00 0.00 0.00 0.00 0.00 0.00
0.00 0.00 0.00 0.00 0.00 0.00 0.00 0.00 0.00 0.00 0.00 0.00 0.00 0.00 0.00 0.00 0.00 0.00 0.00 0.00 0.00 0.00 0.00 0.00 0.00 0.00 0.00 0.00 0.00 0.00 0.00 0.00 0.00 0.00 0.00 0.00 0.00 0.00 0.00 0.00 0.00 0.01 0.01
0.00 0.00 0.00 0.00 0.00 0.00 0.00 0.00 0.00 0.00 0.00 0.00 0.00 0.00 0.00 0.00 0.00 0.00 0.00 0.00 0.00 0.00 0.00 0.00 0.00 0.00 0.00 0.00 0.00 0.00 0.00 0.00 0.00 0.00 0.00 0.00 0.00 0.01 0.01 0.00 0.01 0.01 0.03
0.00 0.00 0.00 0.00 0.00 0.00 0.00 0.00 0.00 0.00 0.00 0.00 0.00 0.00 0.00 0.00 0.00 0.00 0.00 0.00 0.00 0.00 0.00 0.00 0.00 0.00 0.00 0.00 0.00 0.00 0.00 0.00 0.00 0.00 0.00 0.00 0.00 0.00 0.00 0.01 0.01 0.01 0.01
0.00 0.00 0.00 0.00 0.00 0.00 0.00 0.00 0.00 0.00 0.00 0.00 0.00 0.00 0.00 0.00 0.00 0.00 0.00 0.00 0.00 0.00 0.00 0.00 0.00 0.00 0.00 0.00 0.00 0.00 0.00 0.00 0.00 0.00 0.00 0.00 0.00 0.00 0.00 0.01 0.01 0.00 0.00
0.00 0.00 0.00 0.00 0.00 0.00 0.00 0.00 0.00 0.00 0.00 0.00 0.00 0.00 0.00 0.00 0.00 0.00 0.00 0.00 0.00 0.00 0.00 0.00 0.00 0.00 0.00 0.00 0.00 0.00 0.00 0.00 0.00 0.00 0.00 0.00 0.00 0.00 0.01 0.01 0.01 0.00 0.00
0.00 0.00 0.00 0.00 0.00 0.00 0.00 0.00 0.00 0.00 0.00 0.00 0.00 0.00 0.00 0.00 0.00 0.00 0.00 0.00 0.00 0.00 0.00 0.00 0.00 0.00 0.00 0.00 0.00 0.00 0.00 0.00 0.00 0.00 0.00 0.00 0.00 0.01 0.00 0.00 0.00 0.00 0.00
0.00 0.00 0.00 0.00 0.00 0.00 0.00 0.00 0.00 0.00 0.00 0.00 0.00 0.00 0.00 0.00 0.00 0.00 0.00 0.00 0.00 0.00 0.00 0.00 0.00 0.00 0.00 0.00 0.00 0.00 0.00 0.00 0.00 0.00 0.00 0.00 0.00 0.00 0.00 0.00 0.00 0.00 0.00
0.00 0.00 0.00 0.00 0.00 0.00 0.00 0.00 0.00 0.00 0.00 0.00 0.00 0.00 0.00 0.00 0.00 0.00 0.00 0.00 0.00 0.00 0.00 0.00 0.00 0.00 0.00 0.00 0.00 0.00 0.00 0.00 0.00 0.00 0.00 0.00 0.00 0.00 0.00 0.00 0.00 0.00 0.00
0.00 0.00 0.00 0.00 0.00 0.00 0.00 0.00 0.00 0.00 0.00 0.00 0.00 0.00 0.00 0.00 0.00 0.00 0.00 0.00 0.00 0.00 0.01 0.00 0.00 0.00 0.00 0.00 0.00 0.00 0.00 0.00 0.00 0.00 0.00 0.00 0.00 0.01 0.01 0.00 0.00 0.00 0.00
0.00 0.00 0.00 0.00 0.00 0.00 0.00 0.00 0.00 0.00 0.00 0.00 0.00 0.00 0.00 0.00 0.00 0.01 0.01 0.00 0.00 0.01 0.00 0.01 0.00 0.00 0.00 0.00 0.00 0.00 0.00 0.00 0.00 0.00 0.00 0.00 0.01 0.01 0.00 0.00 0.00 0.00 0.00
0.00 0.00 0.00 0.00 0.00 0.00 0.00 0.00 0.00 0.00 0.00 0.00 0.00 0.00 0.00 0.01 0.01 0.06 0.06 0.02 0.00 0.01 0.02 0.02 0.01 0.00 0.00 0.00 0.00 0.00 0.01 0.00 0.00 0.00 0.00 0.00 0.01 0.00 0.00 0.00 0.00 0.00 0.00
0.00 0.00 0.00 0.00 0.00 0.00 0.00 0.00 0.00 0.00 0.00 0.00 0.00 0.00 0.01 0.02 0.03 0.08 0.10 0.11 0.05 0.02 0.03 0.03 0.02 0.00 0.00 0.01 0.01 0.02 0.03 0.01 0.00 0.00 0.00 0.00 0.00 0.00 0.00 0.00 0.00 0.00 0.00
0.00 0.00 0.00 0.00 0.00 0.00 0.00 0.00 0.00 0.01 0.00 0.01 0.00 0.00 0.01 0.04 0.06 0.07 0.06 0.06 0.11 0.04 0.02 0.04 0.02 0.01 0.00 0.01 0.01 0.01 0.02 0.02 0.00 0.00 0.00 0.00 0.00 0.00 0.00 0.00 0.00 0.00 0.00
0.00 0.00 0.00 0.00 0.00 0.00 0.00 0.00 0.00 0.00 0.01 0.01 0.02 0.01 0.01 0.03 0.07 0.06 0.05 0.01 0.02 0.04 0.04 0.05 0.04 0.02 0.03 0.02 0.02 0.01 0.02 0.04 0.04 0.01 0.01 0.00 0.00 0.00 0.00 0.01 0.01 0.00 0.00
0.00 0.00 0.00 0.00 0.00 0.00 0.00 0.01 0.01 0.01 0.01 0.02 0.03 0.08 0.04 0.02 0.05 0.07 0.06 0.01 0.02 0.04 0.06 0.06 0.07 0.19 0.36 0.29 0.20 0.12 0.03 0.04 0.05 0.04 0.02 0.00 0.01 0.00 0.00 0.01 0.01 0.01 0.00
0.00 0.00 0.00 0.00 0.00 0.00 0.01 0.02 0.02 0.02 0.02 0.03 0.04 0.07 0.11 0.11 0.05 0.06 0.03 0.03 0.02 0.05 0.07 0.09 0.14 0.20 0.25 0.21 0.12 0.04 0.02 0.05 0.07 0.06 0.04 0.01 0.00 0.00 0.00 0.00 0.00 0.01 0.01
0.00 0.00 0.00 0.00 0.00 0.00 0.00 0.01 0.03 0.03 0.02 0.01 0.03 0.03 0.04 0.08 0.11 0.16 0.05 0.08 0.02 0.04 0.09 0.13 0.20 0.23 0.14 0.05 0.02 0.01 0.05 0.12 0.18 0.20 0.17 0.06 0.00 0.00 0.00 0.00 0.00 0.01 0.01
0.00 0.00 0.00 0.00 0.00 0.00 0.00 0.00 0.00 0.01 0.03 0.04 0.04 0.03 0.04 0.08 0.14 0.15 0.17 0.13 0.04 0.03 0.05 0.06 0.08 0.07 0.04 0.02 0.03 0.03 0.06 0.13 0.16 0.13 0.13 0.06 0.01 0.00 0.00 0.00 0.00 0.00 0.01
0.00 0.00 0.00 0.00 0.00 0.00 0.00 0.00 0.00 0.00 0.00 0.02 0.07 0.10 0.11 0.14 0.17 0.20 0.25 0.18 0.05 0.07 0.10 0.07 0.06 0.05 0.04 0.01 0.01 0.01 0.07 0.08 0.10 0.07 0.07 0.07 0.03 0.00 0.00 0.00 0.00 0.00 0.00
0.00 0.00 0.00 0.00 0.00 0.00 0.00 0.00 0.00 0.00 0.00 0.00 0.02 0.07 0.12 0.16 0.21 0.23 0.22 0.20 0.10 0.09 0.07 0.05 0.05 0.03 0.02 0.02 0.02 0.02 0.01 0.02 0.03 0.02 0.03 0.05 0.08 0.05 0.01 0.00 0.01 0.01 0.00
0.00 0.00 0.00 0.00 0.00 0.00 0.00 0.00 0.00 0.00 0.00 0.00 0.00 0.01 0.03 0.06 0.12 0.26 0.35 0.33 0.29 0.28 0.23 0.14 0.08 0.04 0.01 0.02 0.02 0.00 0.00 0.00 0.01 0.07 0.10 0.12 0.17 0.19 0.07 0.02 0.03 0.02 0.01
0.00 0.00 0.00 0.00 0.00 0.00 0.00 0.00 0.00 0.00 0.00 0.00 0.00 0.00 0.00 0.02 0.05 0.14 0.27 0.43 0.68 0.84 0.82 0.75 0.52 0.48 0.31 0.13 0.10 0.03 0.02 0.00 0.00 0.01 0.04 0.09 0.14 0.22 0.21 0.15 0.09 0.08 0.05
0.00 0.00 0.00 0.00 0.00 0.00 0.00 0.00 0.00 0.00 0.00 0.00 0.00 0.00 0.00 0.00 0.00 0.00 0.01 0.02 0.10 0.34 0.44 0.73 0.93 0.99 0.83 0.54 0.46 0.23 0.08 0.01 0.00 0.00 0.00 0.01 0.07 0.18 0.27 0.26 0.19 0.19 0.18
MSLP
1004.59 1006.27 1007.71 1008.23 1008.77 1009.09 1009.38 1009.71 1010.16 1010.63 1011.07 1011.50 1011.92 1012.23 1012.50 1012.74 1012.89 1013.01 1013.19 1013.41 1013.66 1014.03 1014.43 1014.86 1015.01 1015.10 1015.27 1015.36 1015.53 1015.66 1015.86 1016.14 1016.34 1016.52 1016.79 1016.84 1017.08 1017.14 1017.00 1016.82 1016.55 1016.68 1017.23
1004.65 1006.52 1008.08 1008.44 1008.77 1009.21 1009.49 1009.87 1010.25 1010.69 1011.17 1011.66 1012.08 1012.36 1012.67 1012.95 1013.22 1013.28 1013.57 1013.85 1014.10 1014.33 1014.64 1015.05 1015.24 1015.29 1015.38 1015.51 1015.57 1015.70 1015.79 1015.95 1016.09 1016.34 1016.81 1017.20 1017.52 1017.51 1017.39 1017.14 1016.83 1017.55 1017.63
1005.33 1006.67 1008.08 1008.55 1008.92 1009.27 1009.70 1010.05 1010.51 1010.90 1011.41 1011.83 1012.29 1012.56 1012.78 1013.11 1013.47 1013.67 1013.73 1014.00 1014.32 1014.62 1015.00 1015.28 1015.49 1015.64 1015.81 1016.04 1016.04 1016.20 1016.25 1016.39 1016.44 1016.19 1015.85 1015.69 1017.18 1017.97 1017.91 1017.76 1017.92 1018.06 1018.15
1005.84 1006.67 1007.84 1009.16 1009.48 1009.65 1009.95 1010.28 1010.63 1011.02 1011.49 1011.98 1012.40 1012.68 1012.96 1013.26 1013.61 1013.88 1014.07 1014.25 1014.53 1014.71 1014.79 1015.01 1015.19 1015.52 1015.83 1016.13 1016.35 1016.65 1016.76 1016.69 1016.49 1016.16 1015.75 1015.69 1016.70 1018.24 1018.37 1018.38 1018.46 1018.59 1018.61
1006.19 1006.72 1007.76 1009.20 1009.70 1009.92 1010.11 1010.39 1010.73 1011.09 1011.49 1011.84 1012.28 1012.64 1012.97 1013.35 1013.69 1013.99 1014.16 1014.43 1014.56 1014.69 1014.76 1014.91 1015.17 1015.57 1015.92 1016.33 1016.61 1016.94 1017.05 1016.95 1016.55 1016.38 1015.52 1016.10 1016.54 1017.97 1018.48 1018.67 1018.80 1018.84 1018.66
1006.22 1006.50 1008.16 1008.99 1009.69 1010.08 1010.38 1010.55 1010.79 1011.08 1011.44 1011.81 1012.25 1012.73 1013.12 1013.42 1013.70 1014.12 1014.38 1014.54 1014.74 1014.99 1015.07 1015.19 1015.43 1015.86 1016.20 1016.54 1016.91 1017.18 1017.15 1017.03 1016.95 1015.78 1016.45 1017.27 1017.42 1018.12 1018.33 1018.75 1019.09 1019.18 1019.30
1006.37 1006.75 1008.22 1008.97 1009.70 1010.07 1010.38 1010.73 1010.96 1011.19 1011.50 1011.89 1012.32 1012.73 1013.15 1013.47 1013.66 1013.94 1014.16 1014.48 1014.76 1014.92 1015.15 1015.49 1015.78 1016.09 1016.39 1016.75 1016.96 1017.33 1017.39 1017.03 1016.79 1016.05 1016.74 1017.69 1018.33 1018.62 1018.45 1018.67 1019.22 1019.66 1019.91
1006.62 1007.02 1007.77 1009.35 1009.82 1010.22 1010.51 1010.78 1011.03 1011.34 1011.67 1011.98 1012.38 1012.76 1012.96 1013.30 1013.61 1013.87 1014.34 1014.68 1014.94 1015.22 1015.33 1015.52 1015.91 1016.23 1016.56 1016.86 1017.14 1017.17 1017.26 1017.38 1016.69 1016.53 1017.21 1018.10 1018.69 1018.93 1019.06 1018.98 1019.30 1019.75 1020.20
1006.84 1007.41 1007.64 1008.69 1009.61 1010.23 1010.41 1010.65 1010.95 1011.28 1011.56 1011.97 1012.37 1012.79 1013.09 1013.48 1013.80 1014.21 1014.48 1014.68 1014.89 1015.41 1015.72 1015.95 1016.21 1016.40 1016.63 1016.81 1017.01 1017.19 1017.31 1017.23 1016.74 1016.15 1017.17 1018.25 1019.13 1019.29 1019.54 1019.44 1019.51 1019.85 1020.46
1007.00 1007.34 1007.80 1008.29 1008.97 1009.49 1010.06 1010.82 1011.11 1011.44 1011.81 1012.19 1012.45 1012.73 1012.87 1013.30 1013.75 1014.04 1014.25 1014.53 1014.86 1015.13 1015.58 1016.12 1016.35 1016.57 1016.63 1016.94 1017.16 1017.45 1017.32 1017.39 1016.75 1016.62 1016.92 1017.80 1019.20 1019.35 1019.70 1019.89 1019.83 1020.06 1020.45
1006.65 1007.13 1007.69 1008.07 1008.56 1009.10 1009.48 1009.97 1011.01 1011.46 1011.72 1012.04 1012.46 1012.84 1013.15 1013.14 1013.50 1013.73 1013.88 1014.20 1014.94 1015.31 1015.62 1015.87 1016.39 1016.66 1016.87 1017.18 1017.44 1017.57 1017.69 1017.08 1016.07 1016.28 1016.22 1018.15 1019.02 1019.55 1019.72 1020.07 1020.29 1020.25 1020.53
1005.60 1006.33 1007.09 1007.76 1008.06 1008.65 1008.99 1009.28 1009.83 1010.24 1010.89 1011.28 1011.52 1011.91 1012.34 1012.13 1012.23 1012.73 1013.24 1014.13 1014.69 1015.15 1015.72 1016.04 1016.25 1016.82 1016.97 1017.03 1017.54 1017.67 1017.49 1016.53 1016.60 1016.38 1016.94 1018.07 1018.92 1019.59 1019.72 1020.16 1020.44 1020.75 1020.78
1004.29 1005.04 1006.21 1007.09 1007.78 1008.06 1008.79 1008.91 1009.42 1009.56 1009.56 1010.05 1010.48 1010.80 1011.35 1011.39 1011.65 1012.12 1012.63 1013.77 1014.45 1015.21 1015.39 1016.14 1016.22 1016.36 1016.47 1016.34 1016.90 1017.03 1016.73 1016.46 1016.97 1016.11 1017.48 1018.27 1018.92 1019.64 1020.03 1020.46 1020.63 1020.98 1021.17
1005.23 1004.92 1005.35 1006.38 1007.31 1008.07 1007.73 1008.70 1009.30 1009.51 1009.18 1009.09 1009.36 1009.92 1010.36 1010.78 1010.91 1011.32 1011.90 1012.53 1013.40 1013.95 1014.27 1014.92 1015.25 1015.44 1015.89 1016.06 1016.28 1016.61 1016.34 1016.42 1016.62 1015.70 1017.66 1018.29 1019.13 1019.75 1020.11 1020.51 1020.73 1021.13 1021.45
1006.87 1006.80 1006.72 1006.62 1006.92 1007.65 1008.13 1008.16 1008.28 1009.16 1009.43 1009.12 1008.81 1008.83 1009.57 1009.92 1010.14 1010.61 1011.59 1012.23 1012.54 1013.04 1013.52 1013.97 1014.54 1014.64 1015.18 1015.57 1016.04 1016.34 1016.20 1016.59 1016.08 1015.56 1017.18 1018.50 1019.14 1019.92 1020.45 1020.71 1021.03 1021.26 1021.56
1007.80 1007.69 1008.02 1007.95 1007.79 1007.28 1007.79 1008.14 1008.21 1008.11 1008.45 1009.01 1009.13 1008.96 1008.97 1009.21 1009.71 1010.15 1010.95 1011.69 1012.06 1012.31 1012.87 1013.43 1014.09 1014.49 1014.56 1015.44 1015.91 1016.07 1016.23 1016.15 1016.07 1015.80 1016.70 1018.25 1019.59 1019.97 1020.45 1020.96 1021.44 1021.61 1021.65
1008.38 1008.45 1008.23 1007.99 1008.22 1007.90 1007.33 1008.12 1008.48 1008.50 1008.44 1008.93 1009.16 1009.40 1009.51 1009.19 1009.30 1009.70 1010.28 1010.85 1011.21 1012.12 1012.61 1013.30 1013.83 1014.31 1014.77 1015.31 1015.76 1015.74 1015.89 1016.21 1015.80 1016.53 1017.04 1017.85 1019.26 1020.04 1020.34 1021.14 1021.54 1021.92 1022.00
1009.12 1008.92 1008.95 1008.89 1008.54 1008.19 1007.80 1008.18 1008.45 1008.64 1008.82 1008.77 1008.68 1008.73 1008.93 1009.21 1009.22 1009.71 1009.97 1010.55 1011.14 1011.72 1012.33 1013.35 1013.70 1014.61 1014.84 1015.45 1015.95 1016.25 1016.36 1016.23 1016.16 1016.31 1017.28 1017.80 1018.68 1019.37 1020.32 1020.63 1021.46 1021.84 1022.21
1009.79 1009.45 1009.27 1009.33 1009.23 1008.97 1008.62 1008.41 1008.47 1008.52 1008.66 1008.67 1008.57 1008.50 1008.27 1008.32 1008.48 1009.20 1009.63 1010.21 1010.73 1011.43 1012.00 1012.57 1013.32 1013.78 1014.70 1015.33 1015.44 1015.81 1016.29 1016.61 1016.62 1016.83 1017.45 1017.28 1018.16 1019.09 1019.87 1020.60 1021.16 1021.79 1022.32
1010.65 1010.46 1010.17 1010.00 1009.96 1009.71 1009.39 1009.07 1008.94 1009.06 1008.90 1008.46 1008.24 1008.01 1007.93 1007.87 1008.07 1008.31 1008.90 1009.48 1010.16 1010.91 1011.44 1011.97 1012.53 1013.08 1013.42 1014.41 1015.48 1015.98 1016.42 1016.76 1016.60 1016.88 1017.12 1017.43 1017.38 1018.51 1019.40 1020.12 1020.88 1021.44 1022.35
1011.58 1011.41 1011.17 1011.07 1011.00 1010.55 1009.90 1009.76 1009.75 1009.89 1009.96 1009.72 1009.62 1008.56 1007.68 1007.63 1007.53 1007.80 1008.02 1008.76 1009.29 1009.88 1010.40 1011.09 1011.62 1012.19 1013.17 1013.92 1014.85 1016.20 1017.04 1016.91 1016.97 1016.73 1016.96 1016.97 1017.14 1018.04 1018.85 1019.20 1020.47 1020.85 1022.09
1012.11 1011.98 1011.66 1011.48 1011.42 1011.24 1010.89 1010.42 1010.20 1010.22 1010.23 1010.06 1009.86 1009.67 1008.77 1008.19 1007.52 1007.70 1007.58 1008.02 1008.56 1009.10 1009.52 1010.00 1010.51 1011.35 1012.04 1012.54 1013.43 1015.25 1016.55 1017.15 1017.29 1016.83 1016.53 1016.64 1016.71 1017.38 1018.23 1018.76 1019.41 1020.49 1021.50
1012.54 1012.59 1012.30 1012.10 1011.89 1011.49 1011.48 1010.94 1010.55 1010.19 1009.64 1009.73 1009.60 1009.50 1009.20 1008.69 1008.23 1007.74 1007.29 1007.40 1007.60 1008.05 1008.30 1008.48 1009.05 1009.73 1010.59 1011.69 1012.33 1012.72 1014.87 1015.45 1016.89 1017.53 1017.19 1016.64 1016.56 1016.76 1017.04 1018.20 1019.07 1019.86 1020.90
1012.88 1012.94 1012.81 1012.61 1012.12 1011.72 1011.79 1011.51 1011.24 1010.73 1009.81 1009.41 1009.25 1009.01 1008.90 1008.89 1008.39 1008.04 1008.18 1007.27 1007.21 1007.45 1006.68 1006.92 1007.76 1008.48 1009.08 1009.87 1011.11 1011.51 1011.56 1012.56 1014.88 1017.03 1017.43 1017.19 1017.09 1017.01 1016.61 1017.14 1018.51 1019.44 1020.46
1012.64 1012.78 1012.93 1012.90 1012.55 1012.40 1012.37 1012.06 1011.46 1011.05 1010.38 1009.43 1008.88 1008.91 1008.83 1008.39 1008.20 1008.13 1008.40 1007.20 1006.99 1008.55 1007.72 1007.62 1006.21 1007.82 1006.31 1008.53 1008.48 1010.43 1011.52 1012.10 1012.54 1013.92 1015.45 1017.15 1017.47 1017.40 1016.74 1016.59 1017.90 1018.53 1020.16
1012.61 1012.92 1013.02 1012.73 1012.66 1012.27 1012.20 1011.95 1011.52 1010.90 1010.31 1009.72 1008.89 1008.32 1007.80 1007.83 1007.52 1007.38 1007.60 1007.90 1008.33 1008.16 1008.14 1007.67 1007.26 1008.25 1008.04 1008.00 1009.20 1008.51 1010.23 1010.57 1011.37 1012.36 1013.21 1015.55 1016.56 1017.71 1017.44 1017.21 1016.98 1018.32 1019.48
Thickness
5819 5808 5797 5793 5788 5786 5783 5780 5776 5772 5767 5764 5761 5759 5755 5753 5752 5751 5749 5746 5744 5740 5736 5732 5730 5729 5727 5725 5723 5722 5719 5715 5713 5710 5707 5705 5702 5701 5701 5702 5703 5701 5697
5822 5807 5794 5792 5789 5785 5783 5779 5775 5771 5766 5762 5759 5757 5754 5750 5748 5746 5743 5740 5737 5734 5731 5727 5726 5726 5725 5724 5723 5722 5720 5718 5715 5711 5706 5702 5697 5695 5695 5697 5699 5693 5692
5816 5805 5794 5791 5788 5785 5781 5777 5773 5768 5763 5759 5756 5753 5751 5747 5743 5741 5740 5737 5733 5730 5726 5723 5721 5720 5719 5717 5717 5715 5715 5713 5711 5712 5714 5711 5697 5690 5689 5690 5688 5686 5685
5812 5805 5795 5786 5783 5781 5778 5775 5771 5766 5761 5756 5752 5750 5747 5743 5740 5738 5735 5733 5731 5728 5727 5724 5723 5719 5717 5714 5713 5709 5708 5708 5709 5710 5712 5710 5699 5686 5683 5683 5682 5679 5679
5808 5804 5794 5784 5780 5778 5776 5773 5770 5766 5760 5757 5752 5748 5745 5741 5738 5735 5732 5730 5729 5727 5726 5724 5722 5718 5714 5710 5707 5703 5702 5703 5706 5706 5709 5703 5698 5687 5682 5679 5677 5676 5677
5807 5804 5791 5784 5778 5775 5771 5769 5766 5763 5759 5754 5749 5744 5741 5738 5735 5730 5727 5727 5724 5721 5720 5718 5717 5713 5709 5705 5701 5697 5697 5697 5697 5706 5700 5692 5690 5684 5681 5678 5674 5673 5671
5803 5800 5787 5782 5776 5771 5768 5764 5762 5759 5756 5751 5746 5743 5738 5735 5732 5730 5728 5725 5722 5720 5716 5712 5710 5707 5704 5700 5697 5692 5691 5693 5693 5699 5694 5686 5681 5679 5679 5677 5672 5668 5664
5798 5795 5789 5777 5772 5767 5764 5761 5758 5755 5751 5747 5743 5739 5737 5734 5731 5728 5723 5719 5716 5713 5712 5709 5705 5701 5697 5694 5691 5691 5688 5686 5690 5690 5686 5679 5676 5674 5672 5673 5669 5666 5661
5794 5789 5786 5777 5770 5765 5762 5759 5756 5752 5749 5744 5739 5735 5732 5727 5723 5719 5716 5714 5711 5706 5703 5700 5698 5695 5692 5690 5689 5687 5684 5682 5685 5690 5680 5675 5668 5667 5666 5667 5666 5664 5658
5788 5786 5781 5776 5771 5766 5760 5754 5751 5747 5743 5739 5735 5732 5730 5725 5720 5718 5715 5712 5707 5706 5701 5695 5692 5689 5688 5685 5683 5679 5678 5677 5680 5682 5678 5675 5664 5663 5660 5661 5661 5660 5657
5784 5781 5777 5774 5768 5764 5760 5756 5747 5743 5739 5736 5730 5727 5722 5720 5717 5714 5712 5709 5701 5698 5695 5692 5686 5683 5681 5678 5675 5673 5669 5670 5681 5676 5679 5667 5660 5657 5656 5655 5655 5656 5653
5783 5781 5778 5772 5769 5762 5758 5755 5751 5747 5741 5736 5732 5728 5723 5725 5724 5718 5713 5705 5697 5693 5689 5684 5682 5676 5674 5672 5667 5666 5663 5667 5670 5669 5671 5661 5655 5651 5653 5650 5650 5649 5649
5791 5786 5780 5773 5767 5764 5756 5753 5749 5746 5746 5741 5737 5732 5727 5725 5721 5716 5710 5699 5691 5685 5684 5677 5674 5672 5668 5669 5663 5661 5662 5663 5659 5663 5663 5654 5650 5645 5644 5643 5643 5642 5642
5778 5781 5779 5773 5765 5757 5759 5752 5744 5742 5742 5741 5738 5733 5728 5724 5720 5715 5710 5704 5692 5687 5684 5680 5676 5672 5667 5664 5661 5656 5657 5658 5654 5658 5655 5648 5641 5638 5637 5636 5637 5636 5635
5757 5759 5761 5765 5761 5755 5750 5750 5750 5741 5737 5736 5737 5737 5730 5726 5721 5714 5704 5698 5693 5686 5682 5678 5674 5672 5665 5660 5655 5651 5651 5649 5652 5654 5651 5640 5636 5629 5626 5628 5628 5630 5629
5745 5746 5746 5746 5748 5753 5747 5743 5741 5742 5737 5730 5730 5729 5728 5724 5718 5712 5702 5694 5690 5684 5679 5672 5667 5664 5664 5654 5649 5645 5642 5645 5646 5647 5647 5634 5625 5623 5619 5617 5617 5619 5622
5735 5735 5736 5739 5737 5738 5743 5734 5729 5727 5725 5721 5718 5715 5712 5712 5710 5706 5699 5694 5690 5679 5672 5665 5659 5655 5653 5648 5641 5642 5638 5636 5641 5637 5631 5631 5621 5615 5614 5608 5607 5608 5611
5723 5723 5723 5724 5725 5727 5728 5725 5718 5716 5713 5713 5713 5710 5707 5703 5702 5696 5690 5686 5680 5674 5667 5656 5650 5643 5643 5638 5626 5622 5628 5627 5629 5627 5619 5621 5616 5614 5608 5607 5601 5600 5600
5708 5710 5710 5710 5709 5709 5710 5712 5710 5707 5704 5702 5700 5700 5699 5696 5695 5687 5681 5675 5672 5665 5660 5655 5645 5641 5634 5629 5618 5626 5622 5619 5619 5615 5613 5612 5608 5605 5602 5600 5597 5594 5592
5692 5693 5694 5694 5692 5692 5693 5694 5693 5689 5690 5691 5693 5692 5690 5688 5683 5680 5673 5667 5665 5658 5653 5649 5643 5635 5634 5628 5619 5613 5612 5610 5612 5609 5607 5600 5606 5600 5595 5594 5590 5589 5583
5674 5672 5671 5670 5669 5671 5674 5671 5668 5664 5662 5662 5663 5672 5677 5676 5675 5672 5666 5657 5657 5654 5651 5644 5639 5631 5623 5619 5611 5599 5594 5598 5598 5602 5599 5599 5598 5592 5591 5591 5583 5584 5577
5655 5654 5656 5655 5652 5649 5650 5651 5651 5648 5646 5645 5645 5647 5653 5656 5659 5659 5656 5648 5649 5646 5643 5637 5634 5625 5618 5616 5610 5596 5585 5583 5582 5589 5594 5594 5595 5589 5586 5584 5581 5576 5572
5640 5638 5637 5636 5634 5633 5630 5631 5631 5631 5633 5630 5629 5628 5631 5634 5636 5644 5646 5641 5640 5639 5635 5634 5627 5622 5615 5608 5603 5600 5579 5590 5576 5571 5576 5584 5587 5587 5587 5576 5571 5568 5566
5624 5621 5617 5615 5613 5611 5606 5604 5602 5603 5609 5612 5612 5614 5615 5615 5620 5622 5624 5619 5623 5629 5627 5616 5619 5616 5612 5607 5596 5595 5601 5598 5583 5563 5562 5566 5569 5572 5581 5575 5566 5561 5558
5614 5606 5598 5593 5591 5586 5582 5579 5579 5577 5580 5587 5592 5593 5595 5600 5603 5605 5609 5607 5613 5603 5612 5600 5611 5612 5602 5600 5596 5587 5580 5580 5585 5583 5577 5557 5556 5557 5567 5571 5561 5560 5549
5598 5588 5579 5573 5564 5562 5555 5549 5546 5549 5553 5557 5565 5571 5580 5584 5589 5592 5589 5585 5582 5585 5588 5596 5600 5595 5593 5593 5590 5592 5582 5577 5578 5575 5581 5562 5557 5543 5549 5550 5557 5549 5542